| time (UTC) | temp F | wind direction | speed knots | gust knots | rain 1hr in | rain 24hr in | rain mn in | humidity % | barometer mb |
| 20260506161503 | 68 | 200 | 1.7 | 9.6 | 0.00 | 0.00 | 0.00 | 68 | 1009.1 |
| 20260506160312 | 70 | 217 | 4.3 | 12.2 | 0.00 | 0.00 | 0.00 | 62 | 1009.4 |
| 20260506160100 | 70 | 243 | 2.6 | 12.2 | 0.00 | 0.00 | 0.00 | 62 | 1009.3 |
| 20260506154521 | 71 | 221 | 6.1 | 16.5 | 0.00 | 0.00 | 0.00 | 59 | 1009.5 |
| 20260506153030 | 70 | 175 | 2.6 | 12.2 | 0.00 | 0.00 | 0.00 | 61 | 1009.2 |
| 20260506151543 | 70 | 231 | 3.5 | 11.3 | 0.00 | 0.00 | 0.00 | 61 | 1009.4 |
| 20260506150043 | 71 | 179 | 5.2 | 15.6 | 0.00 | 0.00 | 0.00 | 60 | 1009.4 |
| 20260506144603 | 72 | 210 | 3.5 | 13.9 | 0.00 | 0.00 | 0.00 | 60 | 1009.5 |
| 20260506143025 | 71 | 258 | 3.5 | 9.6 | 0.00 | 0.00 | 0.00 | 61 | 1009.4 |
| 20260506141519 | 70 | 241 | 3.5 | 12.2 | 0.00 | 0.00 | 0.00 | 62 | 1009.3 |
| 20260506140310 | 71 | 181 | 5.2 | 12.2 | 0.00 | 0.00 | 0.00 | 61 | 1009.5 |
| 20260506140023 | 70 | 316 | 3.5 | 12.2 | 0.00 | 0.00 | 0.00 | 62 | 1009.4 |
| 20260506134540 | 70 | 204 | 4.3 | 11.3 | 0.00 | 0.00 | 0.00 | 63 | 1009.4 |
| 20260506133051 | 69 | 235 | 4.3 | 13.0 | 0.00 | 0.00 | 0.00 | 64 | 1009.6 |
| 20260506131511 | 69 | 165 | 6.1 | 13.0 | 0.00 | 0.00 | 0.00 | 64 | 1009.7 |
| 20260506130012 | 69 | 1 | 1.7 | 9.6 | 0.00 | 0.00 | 0.00 | 65 | 1009.5 |
| 20260506124526 | 68 | 221 | 3.5 | 10.4 | 0.00 | 0.00 | 0.00 | 66 | 1009.5 |
| 20260506123045 | 66 | 161 | 1.7 | 7.8 | 0.00 | 0.00 | 0.00 | 68 | 1009.6 |
| 20260506121559 | 66 | 125 | 2.6 | 8.7 | 0.00 | 0.00 | 0.00 | 68 | 1009.7 |
| 20260506120323 | 67 | 91 | 2.6 | 7.0 | 0.00 | 0.00 | 0.00 | 68 | 1009.8 |
| 20260506120044 | 67 | 110 | 3.5 | 7.0 | 0.00 | 0.00 | 0.00 | 68 | 1009.8 |
| 20260506114552 | 66 | 211 | 3.5 | 10.4 | 0.00 | 0.00 | 0.00 | 69 | 1009.8 |
| 20260506113057 | 65 | 111 | 4.3 | 8.7 | 0.00 | 0.00 | 0.00 | 71 | 1010.0 |
| 20260506111517 | 64 | 90 | 1.7 | 7.0 | 0.00 | 0.00 | 0.00 | 72 | 1010.0 |
| 20260506110028 | 64 | 185 | 1.7 | 7.8 | 0.00 | 0.00 | 0.00 | 73 | 1009.8 |
| 20260506104559 | 63 | 156 | 2.6 | 10.4 | 0.00 | 0.00 | 0.00 | 73 | 1009.7 |
| 20260506103010 | 63 | 155 | 2.6 | 11.3 | 0.00 | 0.00 | 0.00 | 74 | 1009.7 |
| 20260506101515 | 63 | 105 | 1.7 | 7.8 | 0.00 | 0.00 | 0.00 | 74 | 1009.6 |
| 20260506100300 | 63 | 191 | 2.6 | 7.0 | 0.00 | 0.00 | 0.00 | 75 | 1009.6 |
| 20260506100015 | 63 | 165 | 1.7 | 7.0 | 0.00 | 0.00 | 0.00 | 75 | 1009.6 |
| 20260506094527 | 63 | 232 | 2.6 | 9.6 | 0.00 | 0.00 | 0.00 | 74 | 1009.4 |
| 20260506093042 | 63 | 155 | 4.3 | 9.6 | 0.00 | 0.00 | 0.00 | 74 | 1009.5 |
| 20260506091548 | 63 | 167 | 2.6 | 7.8 | 0.00 | 0.00 | 0.00 | 74 | 1009.5 |
| 20260506090056 | 63 | 134 | 1.7 | 7.8 | 0.00 | 0.00 | 0.00 | 74 | 1009.6 |
| 20260506084511 | 63 | 193 | 1.7 | 8.7 | 0.00 | 0.00 | 0.00 | 74 | 1009.7 |
| 20260506083025 | 64 | 243 | 2.6 | 9.6 | 0.00 | 0.00 | 0.00 | 74 | 1009.7 |
| 20260506081524 | 64 | 209 | 2.6 | 7.0 | 0.00 | 0.00 | 0.00 | 74 | 1010.0 |
| 20260506080309 | 64 | 195 | 1.7 | 7.8 | 0.00 | 0.00 | 0.00 | 74 | 1009.9 |
| 20260506073058 | 64 | 172 | 2.6 | 7.8 | 0.00 | 0.00 | 0.00 | 73 | 1009.9 |
| 20260506071511 | 65 | 100 | 1.7 | 8.7 | 0.00 | 0.00 | 0.00 | 72 | 1010.0 |
| 20260506061545 | 66 | 203 | 1.7 | 7.0 | 0.00 | 0.00 | 0.00 | 69 | 1009.9 |
| 20260506060318 | 67 | 216 | 2.6 | 11.3 | 0.00 | 0.00 | 0.00 | 68 | 1010.0 |
| 20260506044529 | 67 | 247 | 2.6 | 9.6 | 0.00 | 0.00 | 0.00 | 66 | 1010.5 |
| 20260506043040 | 67 | 204 | 1.7 | 9.6 | 0.00 | 0.00 | 0.00 | 65 | 1010.5 |
| 20260506041607 | 67 | 161 | 2.6 | 9.6 | 0.00 | 0.00 | 0.00 | 64 | 1010.4 |
| 20260506040309 | 68 | 191 | 4.3 | 8.7 | 0.00 | 0.00 | 0.00 | 63 | 1010.5 |
| 20260506040020 | 68 | 284 | 1.7 | 8.7 | 0.00 | 0.00 | 0.00 | 63 | 1010.4 |
| 20260506034532 | 68 | 148 | 2.6 | 11.3 | 0.00 | 0.00 | 0.00 | 62 | 1010.5 |
| 20260506033030 | 69 | 202 | 2.6 | 10.4 | 0.00 | 0.00 | 0.00 | 60 | 1010.5 |
| 20260506031536 | 69 | 218 | 4.3 | 13.0 | 0.00 | 0.00 | 0.00 | 59 | 1010.3 |
| 20260506030050 | 69 | 231 | 2.6 | 12.2 | 0.00 | 0.00 | 0.00 | 58 | 1010.3 |
| 20260506024600 | 69 | 154 | 4.3 | 10.4 | 0.00 | 0.00 | 0.00 | 58 | 1010.3 |
| 20260506023019 | 69 | 195 | 3.5 | 9.6 | 0.00 | 0.00 | 0.00 | 57 | 1010.4 |
| 20260506021532 | 69 | 108 | 3.5 | 10.4 | 0.00 | 0.00 | 0.00 | 57 | 1010.3 |
| 20260506020309 | 70 | 113 | 4.3 | 10.4 | 0.00 | 0.00 | 0.00 | 57 | 1010.3 |
| 20260506020039 | 70 | 161 | 3.5 | 12.2 | 0.00 | 0.00 | 0.00 | 57 | 1010.2 |
| 20260506014541 | 70 | 169 | 4.3 | 13.9 | 0.00 | 0.00 | 0.00 | 56 | 1010.2 |
| 20260506013106 | 71 | 178 | 1.7 | 9.6 | 0.00 | 0.00 | 0.00 | 56 | 1010.0 |
| 20260506011510 | 71 | 234 | 2.6 | 9.6 | 0.00 | 0.00 | 0.00 | 54 | 1009.9 |
| 20260506010015 | 72 | 229 | 4.3 | 9.6 | 0.00 | 0.00 | 0.00 | 53 | 1009.7 |
| 20260506004523 | 73 | 103 | 5.2 | 12.2 | 0.00 | 0.00 | 0.00 | 50 | 1009.5 |
| 20260506003055 | 76 | 160 | 4.3 | 12.2 | 0.00 | 0.00 | 0.00 | 41 | 1009.2 |
| 20260506001502 | 77 | 174 | 2.6 | 10.4 | 0.00 | 0.00 | 0.00 | 40 | 1009.0 |
| 20260506000315 | 78 | 210 | 4.3 | 13.0 | 0.00 | 0.00 | 0.00 | 40 | 1009.0 |
| 20260506000058 | 77 | 236 | 2.6 | 16.5 | 0.00 | 0.00 | 0.00 | 40 | 1008.9 |
| 20260505234519 | 78 | 120 | 4.3 | 11.3 | 0.00 | 0.00 | 0.00 | 38 | 1008.8 |
| 20260505233037 | 79 | 188 | 3.5 | 13.0 | 0.00 | 0.00 | 0.00 | 36 | 1008.7 |
| 20260505231603 | 80 | 146 | 2.6 | 12.2 | 0.00 | 0.00 | 0.00 | 34 | 1008.3 |
| 20260505230055 | 80 | 222 | 6.1 | 14.8 | 0.00 | 0.00 | 0.00 | 31 | 1008.2 |
| 20260505224559 | 81 | 156 | 6.1 | 12.2 | 0.00 | 0.00 | 0.00 | 29 | 1008.1 |
| 20260505223016 | 82 | 217 | 5.2 | 15.6 | 0.00 | 0.00 | 0.00 | 27 | 1008.0 |
| 20260505221526 | 82 | 96 | 6.1 | 15.6 | 0.00 | 0.00 | 0.00 | 30 | 1007.9 |
| 20260505220330 | 83 | 216 | 4.3 | 16.5 | 0.00 | 0.00 | 0.00 | 31 | 1007.7 |
| 20260505220022 | 83 | 146 | 6.1 | 16.5 | 0.00 | 0.00 | 0.00 | 31 | 1007.6 |
| 20260505214614 | 83 | 230 | 5.2 | 14.8 | 0.00 | 0.00 | 0.00 | 32 | 1007.6 |
| 20260505213009 | 83 | 218 | 4.3 | 14.8 | 0.00 | 0.00 | 0.00 | 31 | 1007.5 |
| 20260505211521 | 84 | 144 | 6.1 | 16.5 | 0.00 | 0.00 | 0.00 | 31 | 1007.5 |
| 20260505210042 | 84 | 212 | 6.1 | 16.5 | 0.00 | 0.00 | 0.00 | 30 | 1007.5 |
| 20260505204549 | 85 | 224 | 5.2 | 14.8 | 0.00 | 0.00 | 0.00 | 30 | 1007.3 |
| 20260505203004 | 84 | 231 | 5.2 | 13.0 | 0.00 | 0.00 | 0.00 | 30 | 1007.5 |
| 20260505201529 | 85 | 225 | 5.2 | 13.9 | 0.00 | 0.00 | 0.00 | 29 | 1007.6 |
| 20260505200321 | 86 | 221 | 5.2 | 14.8 | 0.00 | 0.00 | 0.00 | 28 | 1007.7 |
| 20260505200045 | 85 | 85 | 3.5 | 14.8 | 0.00 | 0.00 | 0.00 | 30 | 1007.6 |
| 20260505194557 | 85 | 197 | 5.2 | 22.6 | 0.00 | 0.00 | 0.00 | 30 | 1007.7 |
| 20260505193013 | 85 | 217 | 4.3 | 13.0 | 0.00 | 0.00 | 0.00 | 31 | 1007.9 |
| 20260505191517 | 85 | 148 | 4.3 | 11.3 | 0.00 | 0.00 | 0.00 | 31 | 1008.2 |
| 20260505190029 | 85 | 188 | 6.1 | 13.0 | 0.00 | 0.00 | 0.00 | 32 | 1008.5 |
| 20260505184557 | 84 | 174 | 4.3 | 16.5 | 0.00 | 0.00 | 0.00 | 34 | 1008.7 |
| 20260505183003 | 83 | 214 | 5.2 | 13.0 | 0.00 | 0.00 | 0.00 | 35 | 1008.8 |
| 20260505181525 | 84 | 224 | 5.2 | 12.2 | 0.00 | 0.00 | 0.00 | 35 | 1009.0 |
| 20260505180320 | 84 | 205 | 5.2 | 13.0 | 0.00 | 0.00 | 0.00 | 36 | 1009.1 |
| 20260505180035 | 84 | 223 | 4.3 | 13.0 | 0.00 | 0.00 | 0.00 | 35 | 1009.1 |
| 20260505174545 | 83 | 164 | 5.2 | 11.3 | 0.00 | 0.00 | 0.00 | 36 | 1009.2 |
| 20260505173054 | 84 | 240 | 4.3 | 11.3 | 0.00 | 0.00 | 0.00 | 36 | 1009.5 |
| 20260505171506 | 82 | 167 | 3.5 | 12.2 | 0.00 | 0.00 | 0.00 | 38 | 1009.5 |
| 20260505170021 | 82 | 178 | 3.5 | 10.4 | 0.00 | 0.00 | 0.00 | 39 | 1009.7 |
| 20260505164540 | 81 | 200 | 5.2 | 11.3 | 0.00 | 0.00 | 0.00 | 39 | 1009.9 |
| 20260505163048 | 81 | 166 | 3.5 | 10.4 | 0.00 | 0.00 | 0.00 | 40 | 1010.0 |